This is the latest recevied weather packets stored in our database for station/object N0KWA. If no packets are shown the sender has not sent any weather packets the latest 10 day(s).
| Time | Temp. | Humidity | Pressure | Rain* | Wind** | Luminosity | Snow |
|---|---|---|---|---|---|---|---|
| 1777589089 | 22.22° C | 99% | 1013.1 hPa | 0 mm | - | 0 W/m² | - |
| 1777588785 | 22.22° C | 99% | 1012.9 hPa | 0 mm | - | 1 W/m² | - |
| 1777588481 | 22.22° C | 99% | 1013 hPa | 0 mm | - | 1 W/m² | - |
| 1777588181 | 22.22° C | 99% | 1012.8 hPa | 0 mm | - | 1 W/m² | - |
| 1777587877 | 22.22° C | 99% | 1012.7 hPa | 0 mm | - | 0 W/m² | - |
| 1777587573 | 22.22° C | 99% | 1012.9 hPa | 0 mm | - | 0 W/m² | - |
| 1777587268 | 22.22° C | 99% | 1012.8 hPa | 0 mm | - | 1 W/m² | - |
| 1777586964 | 22.22° C | 99% | 1012.6 hPa | 0 mm | - | 2 W/m² | - |
| 1777586660 | 22.22° C | 99% | 1012.5 hPa | 0 mm | - | 3 W/m² | - |
| 1777586355 | 22.22° C | 99% | 1012.4 hPa | 1.78 mm | - | 4 W/m² | - |
| 1777586055 | 22.22° C | 99% | 1012.5 hPa | 1.78 mm | - | 2 W/m² | - |
| 1777585753 | 22.22° C | 99% | 1012.7 hPa | 0 mm | - | 0 W/m² | - |
| 1777585448 | 22.22° C | 99% | 1012.9 hPa | 0 mm | - | 2 W/m² | - |
| 1777585144 | 22.22° C | 99% | 1012.7 hPa | 0 mm | - | 2 W/m² | - |
| 1777584839 | 22.22° C | 99% | 1012.7 hPa | 0 mm | - | 2 W/m² | - |
| 1777584537 | 22.22° C | 99% | 1012.6 hPa | 0 mm | - | 3 W/m² | - |
| 1777584234 | 22.78° C | 99% | 1012.8 hPa | 0 mm | - | 3 W/m² | - |
| 1777583933 | 22.78° C | 99% | 1012.7 hPa | 0 mm | - | 3 W/m² | - |
| 1777583630 | 22.78° C | 99% | 1012.5 hPa | 0 mm | - | 3 W/m² | - |
| 1777583328 | 22.78° C | 99% | 1012.7 hPa | 0 mm | - | 5 W/m² | - |
| 1777583023 | 23.33° C | 99% | 1012.7 hPa | 0 mm | - | 9 W/m² | - |
| 1777582720 | 23.33° C | 99% | 1012.5 hPa | 0 mm | - | 11 W/m² | - |
| 1777582416 | 23.33° C | 99% | 1012.5 hPa | 0 mm | - | 16 W/m² | - |
| 1777582115 | 23.33° C | 99% | 1012.3 hPa | 0 mm | - | 26 W/m² | - |
| 1777581809 | 22.78° C | 99% | 1012.7 hPa | 0 mm | - | 26 W/m² | - |
* Rain latest hour (hover to see other rain measurements)
** Current wind speed in m/s (hover to see current wind gust speed)